Home   Weather   Budapest   Past weeks

Flag for Hungary Past Weather in Budapest, Hungary — Yesterday and Last 2 Weeks

Now
50 °F

Light rain. Passing clouds.


Feels Like: 46 °F
Forecast: 41 / 56 °F
Wind: 10 mph from Northwest

Location: Ferenc Liszt International Airport

Current Time: Apr 28, 2017 at 8:22:04 pm

Latest Report: Apr 28, 2017 at 8:00 pm


Visibility: 5 mi

Pressure: 29.77 "Hg

Humidity: 94%

Dew Point: 48 °F

Location of BudapestLocation

Past Weather in Budapest — Graph

°F

Budapest Temperature Yesterday

Maximum temperature yesterday: 68 °F (at 12:30 pm)
Minimum temperature yesterday: 46 °F (at 3:00 am)
Average temperature yesterday: 58 °F

High & Low Weather Summary for the Past Weeks

 TemperatureHumidityPressure
High72 °F (Apr 25, 3:30 pm)100% (Apr 18, 5:00 am)30.36 "Hg (Apr 18, 5:00 am)
Low30 °F (Apr 17, 6:00 am)30% (Apr 23, 6:00 pm)29.65 "Hg (Apr 28, 4:30 pm)
Average49 °F67%29.97 "Hg
* Reported Apr 13 7:00 pm — Apr 28 7:30 pm, Budapest, Weather by CustomWeather, © 2017

Note: Actual official high and low records may vary slightly from our data, if they occured in-between our weather recording intervals... More about our weather records

Advertising

Budapest Weather History for the Previous 24 Hours

Scroll right to see more
 ConditionsComfort  
Time TempWeatherWind HumidityBarometerVisibility
7:30 pm
Fri, Apr 28
50 °FLight rain. Broken clouds.10 mph94%29.77 "Hg4 mi
7:00 pm50 °FRain. Mostly cloudy.12 mph100%29.74 "Hg3 mi
6:30 pm52 °FRain showers. Partly sunny.15 mph94%29.74 "Hg3 mi
6:17 pm54 °FRain showers. Partly sunny.15 mph88%29.74 "Hg3 mi
6:07 pm54 °FSprinkles. Broken clouds.17 mph88%29.74 "Hg4 mi
5:44 pm55 °FSprinkles. Broken clouds.18 mph88%29.71 "Hg4 mi
5:00 pm66 °FSunny.3 mph68%29.65 "Hg10 mi
4:30 pm66 °FSunny.3 mph64%29.65 "Hg10 mi
4:00 pm66 °FPartly sunny.5 mph64%29.68 "HgN/A
3:00 pm68 °FPartly sunny.2 mph60%29.68 "HgN/A
2:00 pm64 °FLight rain. Broken clouds.7 mph68%29.71 "HgN/A
1:30 pm64 °FLight rain. Broken clouds.8 mph68%29.71 "HgN/A
1:00 pm64 °FLight rain. Broken clouds.8 mph64%29.71 "HgN/A
12:30 pm64 °FLight rain. Broken clouds.12 mph64%29.71 "HgN/A
12:04 pm66 °FLight rain. Broken clouds.13 mph60%29.71 "HgN/A
12:00 pm66 °FBroken clouds.13 mph60%29.71 "HgN/A
11:30 am66 °FBroken clouds.9 mph64%29.71 "HgN/A
11:00 am64 °FBroken clouds.15 mph60%29.74 "HgN/A
10:30 am66 °FSunny.12 mph64%29.71 "Hg10 mi
9:30 am63 °FSunny.12 mph68%29.74 "Hg10 mi
9:00 am63 °FSunny.9 mph73%29.71 "Hg10 mi
8:30 am61 °FLight rain. Clear.9 mph83%29.71 "HgN/A
8:00 am61 °FSunny.7 mph83%29.71 "Hg10 mi
7:30 am59 °FLight rain. Broken clouds.7 mph88%29.74 "HgN/A
7:00 am57 °FBroken clouds.8 mph94%29.74 "HgN/A
6:30 am57 °FPartly sunny.8 mph88%29.74 "HgN/A
6:05 am57 °FSprinkles. Broken clouds.8 mph88%29.74 "Hg5 mi
6:00 am57 °FSunny.8 mph88%29.74 "Hg10 mi
5:30 am57 °FClear.8 mph88%29.74 "Hg10 mi
5:00 am57 °FClear.8 mph94%29.74 "Hg10 mi
4:30 am57 °FClear.7 mph88%29.77 "Hg10 mi
4:00 am55 °FClear.7 mph100%29.77 "Hg5 mi
3:30 am57 °FClear.8 mph94%29.77 "Hg5 mi
3:00 am55 °FLight rain. Partly cloudy.6 mph100%29.80 "Hg4 mi
2:30 am55 °FLight rain. Partly cloudy.3 mph94%29.80 "Hg4 mi
2:00 am55 °FLight rain. Partly cloudy.1 mph94%29.83 "Hg4 mi
1:30 am55 °FLight rain. Partly cloudy.6 mph94%29.83 "Hg5 mi
1:00 am54 °FClear.2 mph100%29.83 "Hg5 mi
12:30 am54 °FClear.6 mph100%29.83 "Hg4 mi
12:00 am52 °FClear.1 mph94%29.83 "Hg4 mi
11:30 pm
Thu, Apr 27
54 °FClear.2 mph94%29.83 "Hg4 mi
11:00 pm55 °FClear.2 mph94%29.83 "Hg4 mi
10:30 pm54 °FClear.3 mph100%29.86 "Hg4 mi
10:00 pm54 °FClear.5 mph100%29.86 "Hg4 mi
9:30 pm55 °FClear.5 mph94%29.86 "Hg4 mi
9:00 pm55 °FLight rain. Clear.2 mph94%29.86 "Hg4 mi
8:30 pm54 °FLight rain. Partly cloudy.5 mph94%29.86 "Hg4 mi
8:00 pm55 °FLight rain. Fog.6 mph94%29.86 "Hg3 mi
Weather by CustomWeather, © 2017

See weather overviewHow to use our weather pages